Location: Godiavel Galaoual
(15.2485°N, 12.6604°W)
Time: 08:01:09
(UTC+00:00)

Envisat - Pass Details

Date: 02 December 2021
Orbit: 764 x 766 km, 98.2° (Epoch: 21 January)

Event Time Altitude Azimuth Distance (km) Brightness Sun altitude
Rises 05:14:45 0° 20° (NNE) 3,223 6.3 -25.1°
Reaches altitude 10° 05:17:07 10° 25° (NNE) 2,296 5.5 -24.5°
Maximum altitude 05:22:01 52° 101° (E) 947 3.8 -23.4°
Drops below altitude 10° 05:26:56 10° 177° (S) 2,292 5.7 -22.3°
Sets 05:29:17 0° 182° (S) 3,216 6.4 -21.7°
